Location: Brachstadt
(48.6975°N, 10.6755°E)
Time: 12:32:03
(UTC+00:00)

Envisat - Pass Details

Date: 28 November 2022
Orbit: 763 x 765 km, 98.2° (Epoch: 06 February)

Event Time Altitude Azimuth Distance (km) Brightness Sun altitude
Rises 02:26:51 0° 25° (NNE) 3,245 6.7 -41.6°
Reaches altitude 10° 02:29:43 10° 41° (NE) 2,313 6.0 -41.2°
Enters shadow 02:31:19 16° 57° (ENE) 1,911 5.6 -40.9°
